[keps] orb07061.2l.amsat

Ray Hoad r.hoad at att.net
Fri Mar 2 17:30:27 PST 2007


SB KEPS @ AMSAT  $ORB07061.N
2Line Orbital Elements 07061.AMSAT

HR AMSAT ORBITAL ELEMENTS FOR AMATEUR SATELLITES IN NASA FORMAT
FROM WA5QGD FORT WORTH,TX March 2, 2007
Send SUBSCRIBE KEPS/UNSUBSCRIBE KEPS to majordomo at amsat.org only
BID: ORB07061.N

DECODE 2-LINE ELSETS WITH THE FOLLOWING KEY:
1 AAAAAU 00  0  0 BBBBB.BBBBBBBB  .CCCCCCCC  00000-0  00000-0 0  DDDZ
2 AAAAA EEE.EEEE FFF.FFFF GGGGGGG HHH.HHHH III.IIII JJ.JJJJJJJJKKKKKZ
KEY: A-CATALOGNUM B-EPOCHTIME C-DECAY D-ELSETNUM E-INCLINATION F-RAAN
G-ECCENTRICITY H-ARGPERIGEE I-MNANOM J-MNMOTION K-ORBITNUM Z-CHECKSUM

TO ALL RADIO AMATEURS BT

AO-07
1 07530U 74089B   07061.67971952 -.00000028  00000-0  10000-3 0  8188
2 07530 101.5316 102.7683 0012154 103.7715 256.4709 12.53572526477771
AO-10
1 14129U 83058B   07060.71530705 -.00000093  00000-0  10000-3 0 03623
2 14129 026.8653 289.0947 6053965 002.1531 359.7194 02.05869845178353
UO-11
1 14781U 84021B   07061.47167068 -.00000138  00000-0 -11114-4 0  3146
2 14781 098.1990 082.0688 0009453 149.4265 210.7511 14.79525010233956
RS-10/11
1 18129U 87054A   07060.69064388  .00000044  00000-0  31082-4 0 02384
2 18129 082.9285 137.7073 0013272 094.5425 265.7245 13.72784812986488
RS-15
1 23439U 94085A   07060.84304522 -.00000039  00000-0  10597-3 0 00391
2 23439 064.8161 180.5152 0162191 209.6571 149.5080 11.27551861501595
FO-29
1 24278U 96046B   07060.97187759 -.00000007  00000-0  29308-4 0 04566
2 24278 098.5355 035.0779 0351172 001.2888 358.9074 13.52928842520408
SO-33
1 25509U 98061B   07060.54661685 -.00000178  00000-0 -49970-4 0 08742
2 25509 031.4307 114.3240 0355560 206.3552 151.8577 14.28146145435858
AO-40
1 26609U 00072B   07061.65006193  .00000040  00000-0  10000-3 0  8454
2 26609 004.8549 169.5312 7992893 281.7200 007.3341 01.25586111 29109
VO-52
1 28650U 05017B   07060.36756119  .00000412  00000-0  59388-4 0 05670
2 28650 097.8408 133.4552 0026230 244.1024 115.7540 14.81272207098455
PO-63
1 29712U 07001D   07061.80356559  .00000619  00000-0  89458-4 0  1518
2 29712 097.9347 122.3922 0015556 113.1006 247.1866 14.79571057  7600
AO-16
1 20439U 90005D   07060.46827837  .00000012  00000-0  19475-4 0 09780
2 20439 098.1936 060.9786 0011373 143.7223 216.4740 14.31751542893130
LO-19
1 20442U 90005G   07060.45494606  .00000069  00000-0  40856-4 0 09067
2 20442 098.1828 070.4376 0012364 143.1209 217.0844 14.31993072893277
AO-27
1 22825U 93061C   07060.45399324  .00000020  00000-0  23943-4 0 06297
2 22825 098.3177 035.1014 0007818 216.1819 143.8831 14.29200714700108
IO-26
1 22826U 93061D   07061.84978040  .00000004  00000-0  17572-4 0  3245
2 22826 098.3122 037.5499 0008449 209.2582 150.8125 14.29446233700385
PO-28
1 22829U 93061G   07061.50792559  .00000016  00000-0  22054-4 0  6045
2 22829 098.3005 038.4039 0009717 183.4298 176.6817 14.30144777700568
GO-32
1 25397U 98043D   07060.23734676  .00000113  00000-0  68418-4 0 02439
2 25397 098.4312 112.1010 0001621 151.1389 208.9880 14.23121496448801
MO-46
1 26548U 00057D   07060.43293127 -.00000037  00000-0  13714-4 0 07350
2 26548 064.5579 156.0132 0027716 211.7516 148.1874 14.83104556347562
NO-44
1 26931U 01043C   07060.48017819 -.00000229  00000-0 -57315-4 0  5323
2 26931 067.0519 064.9348 0006254 278.6637 081.3723 14.29473207282703
SO-50
1 27607U 02058C   07060.45407641  .00000095  00000-0  36946-4 0  2541
2 27607 064.5580 052.1148 0041726 034.7343 325.6475 14.71232185225271
CO-55
1 27844U 03031E   07061.60340541  .00000068  00000-0  51872-4 0  9732
2 27844 098.7216 071.3520 0010704 041.8957 318.3035 14.20494772190344
CO-57
1 27848U 03031J   07060.55376672  .00000042  00000-0  39921-4 0 09354
2 27848 098.7202 069.5513 0010542 047.3259 312.8813 14.20315865190179
AO-51
1 28375U 04025K   07061.18650588  .00000014  00000-0  16796-4 0  7605
2 28375 098.1290 105.9469 0083944 146.0169 214.6436 14.40556964140303
CO-56
1 28941U 06005C   07061.86411306  .00018361  25857-5  20765-3 0  3660
2 28941 098.1457 111.4082 0240596 288.3761 069.1426 15.35350329 57093
HO-59
1 29484U 06041F   07060.67367615  .00032969  28876-5  26471-3 0 02117
2 29484 098.3023 094.7440 0236484 289.3304 068.2654 15.42817066024454
NO-60
1 29661U 06055C   07060.90950263  .00080903  13519-4  27247-3 0 00884
2 29661 051.6412 293.7576 0010247 277.5199 082.4645 15.90048410011258
NO-61
1 29667U 06055J   07061.85874725  .00018095  00000-0  80523-4 0   699
2 29667 051.6338 290.3192 0015021 289.2659 070.6719 15.84261782 11123
NOAA-10
1 16969U 86073A   07061.11876687  .00000007  00000-0  21056-4 0  5680
2 16969 098.7534 078.2019 0013053 117.3377 242.9121 14.27318519 63952
NOAA-11
1 19531U 88089A   07061.34616602 -.00000039  00000-0  24724-5 0  5616
2 19531 098.8119 151.8446 0011495 339.1120 020.9559 14.14836535951044
NOAA-12
1 21263U 91032A   07061.47519273 -.00000118  00000-0 -30897-4 0   557
2 21263 098.7494 058.9087 0013433 059.8569 300.3950 14.25522706821049
MET-3/5
1 21655U 91056A   07061.89097243  .00000051  00000-0  10000-3 0  2337
2 21655 082.5499 078.0441 0014228 111.2533 249.0109 13.17010305747414
MET-2/21
1 22782U 93055A   07061.70433366  .00000019  00000-0  37844-5 0  7628
2 22782 082.5487 126.4013 0022684 170.9275 189.2309 13.83614340681793
OKEAN-4
1 23317U 94066A   07061.87461766  .00000145  00000-0  15093-4 0  2007
2 23317 082.5384 035.7081 0020684 241.2508 118.6633 14.82472416668304
NOAA-14
1 23455U 94089A   07061.49229570  .00000003  00000-0  25574-4 0  5447
2 23455 099.0027 127.0571 0009630 046.7608 313.4360 14.13702500627569
SICH-1
1 23657U 95046A   07061.84233307  .00000264  00000-0  30628-4 0    21
2 23657 082.5306 176.6624 0022785 230.3451 129.5749 14.81457043620285
NOAA-15
1 25338U 98030A   07061.48742340 -.00000082  00000-0 -16918-4 0  9022
2 25338 098.5290 061.1924 0010318 345.4843 014.6052 14.24628264457499
RESURS
1 25394U 98043A   07060.78368157 -.00000008  00000-0  14665-4 0 05930
2 25394 098.4573 119.4973 0001864 116.4449 243.6922 14.24128530449064
FENGYUN1
1 25730U 99025A   07061.64519636  .00000215  00000-0  15253-3 0  9892
2 25730 098.6829 049.5816 0022195 065.9050 294.4377 14.07430565402476
OKEAN-0
1 25860U 99039A   07060.79932886  .00000067  00000-0  17567-4 0 09933
2 25860 097.7319 068.0663 0001596 047.2825 312.8517 14.73433435409688
NOAA-16
1 26536U 00055A   07061.50538901 -.00000182  00000-0 -73923-4 0  3138
2 26536 099.1056 036.6504 0011230 112.1978 248.0391 14.12406968332044
NOAA-17
1 27453U 02032A   07061.49617112  .00000159  00000-0  88262-4 0  3273
2 27453 098.5904 133.3145 0012172 048.5744 311.6471 14.23858272243535
NOAA-18
1 28654U 05018A   07061.39438972  .00000410  00000-0  25194-3 0  8660
2 28654 098.8186 004.5251 0013962 208.2694 151.7734 14.11042805 91796
HUBBLE
1 20580U 90037B   07060.63539996  .00000435  00000-0  20961-4 0 08226
2 20580 028.4664 171.4204 0003509 037.5197 322.5637 15.00197874723793
UARS
1 21701U 91063B   07060.99204462  .00007046  00000-0  12426-3 0 00243
2 21701 056.9751 058.7344 0094194 348.9727 010.9271 15.46871475849159
PO-34
1 25520U 98064B   07061.53079905  .00000476  00000-0  13737-4 0  6857
2 25520 028.4598 102.5551 0005874 174.4020 185.6643 15.16935853461317
ISS
1 25544U 98067A   07061.81059565  .00021534  00000-0  12123-3 0  7448
2 25544 051.6342 293.6996 0020357 270.3600 140.9890 15.78873422473970
OO-38
1 26063U 00004C   07060.85414335  .00000006  00000-0  22372-4 0 08532
2 26063 100.2215 043.6732 0037227 101.6736 258.8623 14.35797423371651
NO-45
1 26932U 01043D   07060.97051444 -.00000063  00000-0  78017-5 0 05610
2 26932 067.0523 063.4222 0004658 286.9492 073.1098 14.29550085282817
UWE-1
1 28892U 05043C   07061.26165144  .00000184  00000-0  48497-4 0  6899
2 28892 098.1424 319.9648 0018466 085.6369 274.6926 14.59469872 71617
CO-58
1 28895U 05043F   07060.21554233  .00000145  00000-0  40258-4 0 06712
2 28895 098.1443 319.1098 0019021 089.6573 270.6807 14.59519133071341
NCUBE2
1 28897U 05043H   07060.71356022  .00000139  00000-0  38775-4 0 01927
2 28897 098.1433 319.5647 0018214 088.4033 271.9266 14.59679473063693
NMARS
1 29662U 06055D   07061.82486994  .00105672  15328-4  32080-3 0   941
2 29662 051.6386 288.5976 0009649 273.1616 086.8297 15.91887745 11293
FCAL
1 29664U 06055F   07061.90632784  .00028531  00000-0  11991-3 0   710
2 29664 051.6348 289.8786 0014103 285.1433 074.8009 15.85138827 11265
/EX






More information about the Keps mailing list